[[{"header":{"parameterUnit":"m.s-1","parameterCategory":2,"la1":30.2991,"la2":30.254,"lo1":-89.0895,"lo2":-89.0444,"dy":0.0017,"dx":0.0017,"nx":28,"ny":28,"refTime":"2025-04-02T03:00:00:Z","depth":"0","parameterNumber":2,"parameterNumberName":"U-component_of_CURRENTS"},"data":[0,0,0,0,0,0,0,0,0,0,0,0,0,0,0,0,0,0,0,0,0,0,0,0,0,0,0,0,0,0,0,0,0,0,0,0,0,0,0,0,0,0,0,0,0,0,0,0,0,0,0,0,0,0,0,0,0,0,0.2193,0.2193,0,0.22,0.22,0.22,0.2168,0.2167,0.2167,0.2166,0.2127,0.2127,0.2127,0,0,0,0,0,0,0,0,0,0,0,0,0,0.2159,0.216,0.2193,0.2193,0.2193,0.22,0.22,0.22,0.2168,0.2167,0.2166,0.2166,0.2127,0.2127,0.2127,0,0,0,0,0,0,0,0,0,0,0,0,0,0.2169,0.216,0.2193,0.218,0.2179,0.22,0.22,0.22,0.2168,0.2167,0.2166,0.2165,0.2128,0.2127,0.2127,0.2146,0,0,0.2125,0.2125,0,0,0,0,0,0,0,0,0.2168,0.217,0.2182,0.2181,0.218,0.2184,0.2174,0.218,0.2169,0.217,0.2166,0.2165,0.2144,0.2142,0.2144,0.2144,0.2142,0.2125,0.2125,0.2125,0.2124,0,0,0,0,0,0,0,0.2168,0.2169,0.2194,0.2182,0.2181,0.2177,0.2176,0.2175,0.2161,0.217,0.2168,0.2173,0.2143,0.2144,0.2143,0.2142,0.2125,0.2125,0.2124,0.2124,0.2152,0.2153,0,0,0,0,0,0,0.2172,0.2169,0.2193,0.2194,0.2174,0.2178,0.2178,0.2182,0.2162,0.2159,0.2174,0.2171,0.2146,0.2143,0.2141,0.2152,0.2125,0.2124,0.2124,0.2151,0.2153,0.2154,0,0,0,0,0,0,0.2171,0.2174,0.2193,0.2183,0.2185,0.218,0.2185,0.2183,0.2186,0.2166,0.2161,0.218,0.2145,0.2142,0.2143,0.215,0.2124,0.2123,0.215,0.2152,0.2153,0.2181,0,0,0,0,0,0,0.217,0.2174,0.2182,0.2184,0.2186,0.2207,0.2186,0.2184,0.2192,0.2189,0.2169,0.2164,0.2144,0.2144,0.2143,0.2149,0.2123,0.2149,0.2151,0.2153,0.2178,0.2183,0.2187,0,0,0,0,0,0.2169,0.2179,0.2182,0.2185,0.2196,0.2208,0.2209,0.22,0.2193,0.2198,0.2186,0.2165,0.2155,0.2145,0.2143,0.2149,0.2148,0.215,0.2153,0.2176,0.2182,0.2187,0,0,0,0,0,0,0.2165,0.2177,0.218,0.2193,0.2203,0.2203,0.221,0.2209,0.2206,0.2202,0.2179,0.2174,0.2178,0.2168,0.2156,0.2166,0.2149,0.2151,0.2167,0.2173,0.2177,0.2181,0.2123,0,0,0,0,0,0.2171,0.2181,0.2194,0.2204,0.2212,0.2216,0.2222,0.2219,0.2217,0.2214,0.2201,0.2192,0.2188,0.2183,0.2178,0.2185,0.2197,0.219,0.2194,0.2197,0.2201,0.223,0.2237,0.2162,0.2162,0.2162,0,0,0.217,0.2181,0.2185,0.2205,0.2211,0.2221,0.2215,0.2228,0.2232,0.2211,0.2211,0.2207,0.2196,0.2199,0.22,0.2188,0.2229,0.22,0.2203,0.2205,0.2233,0.224,0.2247,0.2163,0.2163,0.2163,0,0,0.2171,0.2188,0.2195,0.2208,0.2227,0.2232,0.2239,0.2247,0.2247,0.2254,0.2241,0.2246,0.2236,0.2231,0.2227,0.2257,0.2253,0.2254,0.2273,0.2301,0.2307,0.2313,0.2353,0.2362,0.2253,0.2253,0.2253,0,0.2169,0.218,0.2199,0.2212,0.2221,0.2237,0.2245,0.2255,0.226,0.2266,0.2255,0.2263,0.2251,0.2264,0.2268,0.2265,0.2285,0.2251,0.2306,0.2312,0.2317,0.2357,0.2366,0.2254,0.2254,0.2254,0.2254,0,0.2172,0.2186,0.2193,0.2213,0.2229,0.224,0.2259,0.2274,0.2278,0.2284,0.2303,0.2298,0.2301,0.2302,0.2289,0.2321,0.2327,0.231,0.2291,0.2326,0.2366,0.2375,0.2257,0.2256,0.2256,0.2255,0,0,0.2144,0.2186,0.2186,0.2195,0.2229,0.2237,0.2263,0.2285,0.2301,0.2313,0.2333,0.2336,0.2343,0.2341,0.2337,0.2358,0.2413,0.2349,0.235,0.2386,0.2489,0.2508,0.252,0.2405,0.2406,0.2407,0.2508,0,0.2135,0.2154,0.218,0.2193,0.2202,0.2237,0.2257,0.2283,0.2307,0.2332,0.2351,0.2365,0.2355,0.2362,0.2384,0.2405,0.2436,0.2388,0.2453,0.2455,0.2464,0.2531,0.2498,0.2586,0.2517,0.2518,0.2519,0,0.2116,0.2134,0.2146,0.2181,0.2189,0.2201,0.2241,0.2264,0.2317,0.2338,0.2373,0.2392,0.2433,0.2414,0.2484,0.2455,0.2477,0.2494,0.2497,0.251,0.2491,0.2537,0.2605,0.2583,0.2533,0.2532,0.2531,0,0.2067,0.2103,0.211,0.2122,0.2169,0.2181,0.2206,0.2259,0.2286,0.2348,0.2378,0.243,0.2461,0.25,0.2545,0.2517,0.2626,0.2589,0.2633,0.2635,0.2618,0.2616,0.2667,0.2643,0.2643,0.2642,0.2642,0,0.2035,0.2035,0.2086,0.2087,0.2096,0.2146,0.2165,0.2206,0.2274,0.2309,0.2374,0.242,0.2483,0.2551,0.2576,0.2653,0.2658,0.266,0.2668,0.2629,0.2627,0.2613,0.2576,0.2646,0.2645,0.2644,0.2644,0,0.1969,0.2004,0.201,0.2057,0.2069,0.2073,0.2131,0.2156,0.2231,0.2287,0.2311,0.2428,0.253,0.2605,0.2686,0.2701,0.2707,0.278,0.2742,0.2743,0.2746,0.2712,0.2631,0.2546,0.2847,0.2849,0.285,0,0.1933,0.1935,0.1972,0.1977,0.1993,0.2015,0.2034,0.2113,0.2153,0.2286,0.2314,0.2448,0.2535,0.2696,0.2767,0.2858,0.2755,0.2858,0.2793,0.2768,0.2736,0.2581,0.2502,0.2789,0.2789,0.2789,0.279,0,0.1871,0.1886,0.1898,0.1908,0.1921,0.1935,0.1976,0.2,0.2106,0.2174,0.2284,0.2373,0.2576,0.2682,0.2827,0.2865,0.2748,0.2867,0.2847,0.271,0.2538,0.2453,0.2709,0.2793,0.2792,0.2792,0.2792,0.2792,0.1821,0.181,0.1831,0.1829,0.1845,0.1847,0.1829,0.1905,0.1956,0.2049,0.2195,0.2311,0.2569,0.2784,0.2811,0.2885,0.2775,0.2843,0.2812,0.2664,0.2548,0.2823,0.2906,0.2907,0.2907,0.2907,0.2907,0,0.1753,0.1751,0.1753,0.1744,0.1723,0.1759,0.1781,0.1763,0.1792,0.1948,0.2049,0.231,0.2503,0.2692,0.2889,0.2847,0.2685,0.2795,0.2577,0.2506,0.2789,0.2755,0.2802,0.2802,0.2802,0.2802,0.2802,0.2802,0.1719,0.1686,0.1681,0.1618,0.1612,0.1549,0.1534,0.1545,0.1627,0.1749,0.1894,0.2058,0.2432,0.2795,0.2892,0.2831,0.2601,0.2522,0.245,0.2695,0.2696,0.2697,0.2659,0.2685,0.2685,0.2081,0.2077,0.2074]},{"header":{"parameterUnit":"m.s-1","parameterCategory":2,"la1":30.2991,"la2":30.254,"lo1":-89.0895,"lo2":-89.0444,"dy":0.0017,"dx":0.0017,"nx":28,"ny":28,"refTime":"2025-04-02T03:00:00:Z","depth":"0","parameterNumber":3,"parameterNumberName":"V-component_of_CURRENTS"},"data":[0,0,0,0,0,0,0,0,0,0,0,0,0,0,0,0,0,0,0,0,0,0,0,0,0,0,0,0,0,0,0,0,0,0,0,0,0,0,0,0,0,0,0,0,0,0,0,0,0,0,0,0,0,0,0,0,0,0,-0.014,-0.0141,0,-0.0228,-0.0229,-0.023,-0.028,-0.028,-0.028,-0.028,-0.0389,-0.0392,-0.0395,0,0,0,0,0,0,0,0,0,0,0,0,0,-0.0061,-0.0062,-0.014,-0.0141,-0.0142,-0.0228,-0.0229,-0.023,-0.028,-0.028,-0.028,-0.028,-0.0388,-0.0392,-0.0395,0,0,0,0,0,0,0,0,0,0,0,0,0,-0.0118,-0.0062,-0.014,-0.0176,-0.018,-0.0227,-0.0229,-0.0231,-0.028,-0.028,-0.028,-0.028,-0.0387,-0.0391,-0.0396,-0.0423,0,0,-0.0409,-0.0411,0,0,0,0,0,0,0,0,-0.0115,-0.0121,-0.017,-0.0173,-0.0178,-0.0241,-0.0241,-0.0296,-0.028,-0.0243,-0.028,-0.028,-0.0341,-0.0349,-0.0368,-0.0428,-0.0433,-0.0409,-0.0412,-0.0414,-0.0415,0,0,0,0,0,0,0,-0.0111,-0.0118,-0.0177,-0.017,-0.0176,-0.0203,-0.0211,-0.0252,-0.0293,-0.0247,-0.025,-0.0257,-0.0343,-0.0363,-0.037,-0.0434,-0.0409,-0.0413,-0.0416,-0.0418,-0.0494,-0.0493,0,0,0,0,0,0,-0.0094,-0.0114,-0.0174,-0.0179,-0.0144,-0.0204,-0.0213,-0.0222,-0.0292,-0.0302,-0.0257,-0.0259,-0.0356,-0.0365,-0.0375,-0.0382,-0.0414,-0.0418,-0.0421,-0.0495,-0.0494,-0.0493,0,0,0,0,0,0,-0.0092,-0.0099,-0.017,-0.0147,-0.0158,-0.0205,-0.0215,-0.0224,-0.0239,-0.0299,-0.031,-0.0261,-0.0356,-0.0368,-0.04,-0.0387,-0.042,-0.0424,-0.0495,-0.0494,-0.0493,-0.0415,0,0,0,0,0,0,-0.009,-0.0098,-0.0098,-0.0146,-0.0158,-0.0187,-0.0215,-0.0226,-0.0242,-0.0246,-0.0307,-0.0317,-0.0357,-0.0393,-0.0404,-0.0394,-0.0427,-0.0496,-0.0495,-0.0494,-0.0418,-0.0411,-0.0405,0,0,0,0,0,-0.0086,-0.0085,-0.0098,-0.0105,-0.0158,-0.0187,-0.0196,-0.023,-0.0242,-0.0244,-0.0283,-0.0315,-0.0393,-0.0396,-0.0409,-0.04,-0.0497,-0.0495,-0.0494,-0.0421,-0.0412,-0.0405,0,0,0,0,0,0,-0.0051,-0.0091,-0.0106,-0.0117,-0.0144,-0.0194,-0.0201,-0.0223,-0.0256,-0.0258,-0.0314,-0.0327,-0.0349,-0.0385,-0.0386,-0.0418,-0.0448,-0.0449,-0.0388,-0.0381,-0.0375,-0.0357,-0.0431,0,0,0,0,0,-0.0043,-0.0051,-0.0092,-0.0099,-0.011,-0.0153,-0.0169,-0.019,-0.0226,-0.0241,-0.0281,-0.0322,-0.0355,-0.0375,-0.0412,-0.0433,-0.0461,-0.0434,-0.0428,-0.0422,-0.0416,-0.0442,-0.0437,-0.0489,-0.0489,-0.0489,0,0,-0.0031,-0.0053,-0.0058,-0.0092,-0.0117,-0.0124,-0.0163,-0.0179,-0.0183,-0.0248,-0.0264,-0.0304,-0.0356,-0.0376,-0.0389,-0.0404,-0.042,-0.042,-0.0415,-0.0412,-0.044,-0.0435,-0.0431,-0.0488,-0.0488,-0.0488,0,0,-0.0004,-0.003,-0.0025,-0.0043,-0.0072,-0.0099,-0.0098,-0.0141,-0.0157,-0.018,-0.0221,-0.0248,-0.0306,-0.0334,-0.0358,-0.0339,-0.0385,-0.0352,-0.0308,-0.0333,-0.0329,-0.0326,-0.0346,-0.0345,-0.0349,-0.0348,-0.0348,0,0.0016,0.0012,-0.0026,-0.0025,-0.0033,-0.008,-0.0072,-0.0097,-0.0142,-0.0151,-0.0171,-0.0241,-0.0283,-0.0305,-0.0297,-0.0324,-0.0346,-0.0332,-0.0324,-0.0321,-0.0319,-0.0341,-0.0342,-0.0345,-0.0345,-0.0345,-0.0346,0,0.0046,0.0043,0.0046,0.0033,0.002,0.0018,-0.0017,-0.003,-0.0055,-0.0083,-0.0109,-0.0166,-0.0206,-0.0222,-0.0257,-0.0262,-0.0284,-0.0311,-0.034,-0.0309,-0.0335,-0.0336,-0.0339,-0.034,-0.0341,-0.0342,0,0,0.0095,0.0073,0.0076,0.0081,0.0051,0.0046,0.0042,0.0025,0.0028,-0.0019,-0.002,-0.0076,-0.0109,-0.0137,-0.0183,-0.0206,-0.0211,-0.0247,-0.0251,-0.0262,-0.0263,-0.0271,-0.0274,-0.0237,-0.0237,-0.0237,-0.0284,0,0.0135,0.0153,0.013,0.0152,0.0159,0.012,0.0122,0.01,0.0071,0.0056,-0.0001,-0.0024,-0.0077,-0.0093,-0.0123,-0.0192,-0.0213,-0.0196,-0.0297,-0.03,-0.0306,-0.0276,-0.0248,-0.0286,-0.0285,-0.0286,-0.0286,0,0.018,0.0184,0.021,0.0212,0.0213,0.0217,0.0213,0.0206,0.017,0.0148,0.0111,0.0063,0.002,-0.0028,-0.0121,-0.0109,-0.0174,-0.0228,-0.0232,-0.0268,-0.0311,-0.032,-0.029,-0.0403,-0.0289,-0.0289,-0.0289,0,0.0236,0.0245,0.0268,0.0267,0.0258,0.0266,0.026,0.0234,0.024,0.0203,0.0206,0.0136,0.0108,0.0018,-0.0093,-0.0108,-0.0195,-0.0232,-0.0299,-0.0301,-0.0311,-0.0314,-0.0398,-0.0288,-0.0287,-0.0287,-0.0287,0,0.0286,0.0307,0.0295,0.0307,0.034,0.0315,0.0343,0.0326,0.0314,0.0332,0.0257,0.026,0.0118,0.0049,-0.0062,-0.0179,-0.0172,-0.0282,-0.031,-0.0283,-0.0282,-0.041,-0.0488,-0.0289,-0.0289,-0.0288,-0.0288,0,0.0337,0.033,0.0357,0.0359,0.0364,0.0384,0.0397,0.0417,0.0399,0.042,0.0416,0.0354,0.0267,0.0127,-0.0018,-0.0128,-0.0324,-0.0289,-0.0245,-0.0266,-0.044,-0.0513,-0.066,-0.0754,-0.0372,-0.0372,-0.0373,0,0.0363,0.0381,0.0397,0.0416,0.0417,0.0441,0.0463,0.0456,0.0481,0.0484,0.0505,0.0439,0.041,0.0196,-0.0005,-0.0192,-0.0331,-0.0304,-0.0329,-0.0436,-0.0539,-0.061,-0.0685,-0.0313,-0.0313,-0.0313,-0.0313,0,0.041,0.0411,0.043,0.0468,0.0496,0.0529,0.056,0.0597,0.0599,0.0629,0.0656,0.0639,0.0453,0.0288,0.003,-0.0117,-0.0402,-0.0308,-0.0431,-0.0505,-0.0576,-0.0683,-0.0299,-0.0311,-0.0312,-0.0312,-0.0312,-0.0312,0.0443,0.0461,0.0482,0.052,0.0555,0.0604,0.0638,0.0688,0.0745,0.0802,0.0784,0.0806,0.0573,0.0234,0.0001,-0.0368,-0.0409,-0.0471,-0.0553,-0.0615,-0.0704,-0.0313,-0.0351,-0.0351,-0.0352,-0.0352,-0.0352,0,0.0476,0.0494,0.0532,0.0572,0.0614,0.0626,0.0694,0.0733,0.081,0.0909,0.0947,0.0906,0.0587,0.0245,-0.0238,-0.0533,-0.0688,-0.0704,-0.0796,-0.0865,-0.0513,-0.0507,-0.0564,-0.0564,-0.0564,-0.0563,-0.0563,-0.0563,0.0494,0.0527,0.054,0.0607,0.0641,0.0691,0.0729,0.0802,0.0884,0.1017,0.1099,0.1145,0.0973,0.0056,-0.0587,-0.0764,-0.1019,-0.1057,-0.1214,-0.0952,-0.0936,-0.0921,-0.0932,-0.1077,-0.1078,-0.1528,-0.1532,-0.1535]}],[{"header":{"parameterUnit":"m.s-1","parameterCategory":2,"la1":30.2991,"la2":30.254,"lo1":-89.0895,"lo2":-89.0444,"dy":0.0017,"dx":0.0017,"nx":28,"ny":28,"refTime":"2025-04-02T03:00:00:Z","depth":"2","parameterNumber":2,"parameterNumberName":"U-component_of_CURRENTS"},"data":[0,0,0,0,0,0,0,0,0,0,0,0,0,0,0,0,0,0,0,0,0,0,0,0,0,0,0,0,0,0,0,0,0,0,0,0,0,0,0,0,0,0,0,0,0,0,0,0,0,0,0,0,0,0,0,0,0,0,0.2229,0.2229,0,0.2237,0.2237,0.2237,0.2205,0.2204,0.2203,0.2203,0.2168,0.2168,0.2168,0,0,0,0,0,0,0,0,0,0,0,0,0,0.2193,0.2193,0.2229,0.2229,0.2229,0.2237,0.2237,0.2237,0.2205,0.2204,0.2203,0.2202,0.2169,0.2168,0.2168,0,0,0,0,0,0,0,0,0,0,0,0,0,0.2203,0.2194,0.2229,0.2216,0.2215,0.2237,0.2237,0.2237,0.2205,0.2204,0.2203,0.2202,0.2169,0.2168,0.2168,0.2188,0,0,0.2167,0.2167,0,0,0,0,0,0,0,0,0.2203,0.2204,0.2218,0.2217,0.2216,0.2221,0.2212,0.2219,0.2205,0.2207,0.2203,0.2201,0.2184,0.2183,0.2184,0.2187,0.2185,0.2167,0.2167,0.2167,0.2166,0,0,0,0,0,0,0,0.2202,0.2204,0.223,0.2218,0.2217,0.2213,0.2213,0.2213,0.2199,0.2206,0.2205,0.2209,0.2183,0.2184,0.2183,0.2185,0.2167,0.2167,0.2166,0.2166,0.2198,0.2199,0,0,0,0,0,0,0.2207,0.2203,0.2229,0.223,0.2209,0.2214,0.2214,0.2218,0.22,0.2197,0.221,0.2208,0.2186,0.2183,0.2182,0.2193,0.2167,0.2166,0.2166,0.2197,0.2198,0.2199,0,0,0,0,0,0,0.2206,0.2209,0.2229,0.2219,0.2221,0.2216,0.2221,0.2219,0.2223,0.2204,0.2199,0.2217,0.2185,0.2182,0.2184,0.2192,0.2166,0.2166,0.2195,0.2197,0.2198,0.2224,0,0,0,0,0,0,0.2205,0.2209,0.2217,0.2219,0.2222,0.2243,0.2223,0.222,0.2229,0.2225,0.2208,0.2203,0.2184,0.2185,0.2184,0.2191,0.2166,0.2194,0.2196,0.2198,0.2221,0.2226,0.223,0,0,0,0,0,0.2203,0.2213,0.2217,0.222,0.2232,0.2244,0.2245,0.2236,0.223,0.2235,0.2224,0.2204,0.2197,0.2186,0.2184,0.2191,0.2193,0.2196,0.2198,0.222,0.2225,0.2229,0,0,0,0,0,0,0.2199,0.2212,0.2215,0.2228,0.2239,0.224,0.2246,0.2246,0.2243,0.2239,0.2218,0.2213,0.2218,0.2209,0.2198,0.2208,0.2192,0.2194,0.2209,0.2214,0.2218,0.2222,0.2165,0,0,0,0,0,0.2205,0.2216,0.2229,0.224,0.2247,0.2252,0.2258,0.2255,0.2253,0.2251,0.2239,0.2231,0.2229,0.2224,0.222,0.2228,0.224,0.2233,0.2237,0.2241,0.2245,0.2273,0.2279,0.2207,0.2207,0.2207,0,0,0.2204,0.2216,0.222,0.224,0.2247,0.2257,0.2251,0.2264,0.2268,0.2249,0.2249,0.2246,0.2236,0.224,0.2241,0.223,0.2271,0.2244,0.2246,0.2248,0.2276,0.2283,0.2289,0.2208,0.2208,0.2208,0,0,0.2205,0.2222,0.2229,0.2243,0.2262,0.2266,0.2274,0.2282,0.2282,0.229,0.2278,0.2284,0.2275,0.2271,0.2267,0.2297,0.2294,0.2295,0.2313,0.2341,0.2347,0.2352,0.2391,0.2399,0.2294,0.2294,0.2294,0,0.2203,0.2214,0.2233,0.2246,0.2255,0.2272,0.228,0.229,0.2296,0.2302,0.2291,0.2301,0.229,0.2303,0.2307,0.2305,0.2324,0.2292,0.2346,0.2351,0.2356,0.2394,0.2403,0.2295,0.2295,0.2295,0.2295,0,0.2205,0.2219,0.2227,0.2246,0.2262,0.2274,0.2293,0.2308,0.2313,0.2319,0.2338,0.2334,0.2339,0.2339,0.2327,0.236,0.2365,0.2349,0.2331,0.2365,0.2403,0.2412,0.2297,0.2297,0.2296,0.2296,0,0,0.2178,0.2219,0.2219,0.2228,0.2263,0.2271,0.2296,0.2319,0.2334,0.2347,0.2367,0.2371,0.2378,0.2377,0.2374,0.2394,0.2447,0.2387,0.2387,0.2421,0.2522,0.2537,0.2549,0.2441,0.2442,0.2443,0.2539,0,0.2168,0.2187,0.2213,0.2227,0.2236,0.227,0.229,0.2317,0.234,0.2366,0.2384,0.24,0.2391,0.2397,0.2419,0.244,0.2471,0.2424,0.2487,0.2489,0.2495,0.2559,0.2312,0.2378,0.2548,0.255,0.2551,0,0.2149,0.2168,0.218,0.2216,0.2223,0.2235,0.2276,0.2299,0.2351,0.2372,0.2407,0.2425,0.2467,0.2448,0.2517,0.2489,0.251,0.2526,0.253,0.254,0.2521,0.237,0.2388,0.2566,0.2565,0.2564,0.2563,0,0.2101,0.2137,0.2145,0.2157,0.2204,0.2216,0.2241,0.2293,0.232,0.2381,0.2411,0.2463,0.2494,0.2532,0.2576,0.2549,0.2655,0.2619,0.2659,0.2661,0.2462,0.2444,0.2672,0.2672,0.2671,0.2671,0.2671,0,0.2069,0.2071,0.2121,0.2122,0.2132,0.2182,0.2201,0.2242,0.2309,0.2344,0.2408,0.2453,0.2516,0.2582,0.2606,0.2679,0.2685,0.2685,0.2692,0.2467,0.245,0.2611,0.2602,0.2675,0.2674,0.2673,0.2673,0,0.2005,0.2039,0.2046,0.2094,0.2106,0.211,0.2168,0.2193,0.2268,0.2322,0.2346,0.246,0.256,0.2633,0.2712,0.2725,0.2782,0.28,0.2548,0.2525,0.2761,0.2753,0.2859,0.286,0.2861,0.2862,0.2863,0,0.197,0.1971,0.2009,0.2014,0.2031,0.2052,0.2072,0.2151,0.219,0.2321,0.2348,0.2479,0.2558,0.2713,0.2739,0.2815,0.2845,0.2647,0.2554,0.2787,0.2784,0.2773,0.2764,0.2298,0.2294,0.2291,0.2288,0,0.1908,0.1924,0.1935,0.1946,0.1959,0.1974,0.2015,0.2039,0.2143,0.2207,0.2314,0.2395,0.2552,0.2537,0.2659,0.2658,0.2618,0.2592,0.2886,0.2308,0.2271,0.2264,0.227,0.226,0.2263,0.2265,0.2267,0.2268,0.1859,0.1848,0.1869,0.1868,0.1884,0.1886,0.1869,0.1939,0.1987,0.206,0.2197,0.2256,0.2335,0.2411,0.2376,0.236,0.2545,0.2431,0.2433,0.2441,0.2379,0.2348,0.234,0.2343,0.2346,0.2349,0.2351,0,0.1792,0.179,0.1792,0.1784,0.1766,0.1799,0.1821,0.1807,0.1826,0.1934,0.2004,0.1923,0.1943,0.203,0.1966,0.2021,0.1922,0.1944,0.1772,0.1804,0.1832,0.173,0.1523,0.152,0.1518,0.1515,0,0,0.1759,0.1727,0.1722,0.1662,0.1656,0.1604,0.1589,0.16,0.1654,0.1674,0.1695,0.1836,0.1974,0.1707,0.1698,0.1598,0.1672,0.1533,0.2201,0.2028,0.2051,0.2129,0.2014,0,0,0,0,0]},{"header":{"parameterUnit":"m.s-1","parameterCategory":2,"la1":30.2991,"la2":30.254,"lo1":-89.0895,"lo2":-89.0444,"dy":0.0017,"dx":0.0017,"nx":28,"ny":28,"refTime":"2025-04-02T03:00:00:Z","depth":"2","parameterNumber":3,"parameterNumberName":"V-component_of_CURRENTS"},"data":[0,0,0,0,0,0,0,0,0,0,0,0,0,0,0,0,0,0,0,0,0,0,0,0,0,0,0,0,0,0,0,0,0,0,0,0,0,0,0,0,0,0,0,0,0,0,0,0,0,0,0,0,0,0,0,0,0,0,-0.0164,-0.0165,0,-0.025,-0.0251,-0.0252,-0.0301,-0.0301,-0.0301,-0.0301,-0.041,-0.0413,-0.0416,0,0,0,0,0,0,0,0,0,0,0,0,0,-0.0087,-0.0088,-0.0164,-0.0165,-0.0166,-0.025,-0.0251,-0.0253,-0.0301,-0.0301,-0.0301,-0.0301,-0.041,-0.0413,-0.0416,0,0,0,0,0,0,0,0,0,0,0,0,0,-0.0143,-0.0088,-0.0164,-0.0199,-0.0203,-0.025,-0.0251,-0.0253,-0.0301,-0.0301,-0.0301,-0.0301,-0.0408,-0.0413,-0.0417,-0.0443,0,0,-0.043,-0.0432,0,0,0,0,0,0,0,0,-0.0139,-0.0146,-0.0193,-0.0197,-0.0201,-0.0264,-0.0264,-0.0317,-0.0301,-0.0266,-0.0301,-0.0301,-0.0362,-0.037,-0.0389,-0.0448,-0.0453,-0.0431,-0.0433,-0.0435,-0.0436,0,0,0,0,0,0,0,-0.0135,-0.0142,-0.02,-0.0194,-0.0199,-0.0226,-0.0234,-0.0275,-0.0315,-0.0269,-0.0272,-0.0279,-0.0365,-0.0384,-0.0392,-0.0455,-0.043,-0.0434,-0.0437,-0.0439,-0.0515,-0.0514,0,0,0,0,0,0,-0.0119,-0.0139,-0.0197,-0.0202,-0.0168,-0.0227,-0.0236,-0.0245,-0.0314,-0.0324,-0.0279,-0.0281,-0.0377,-0.0387,-0.0396,-0.0404,-0.0435,-0.0439,-0.0442,-0.0515,-0.0515,-0.0514,0,0,0,0,0,0,-0.0117,-0.0124,-0.0194,-0.0171,-0.0181,-0.0228,-0.0238,-0.0246,-0.0261,-0.0321,-0.0332,-0.0283,-0.0377,-0.039,-0.0421,-0.0409,-0.0441,-0.0445,-0.0516,-0.0515,-0.0514,-0.0437,0,0,0,0,0,0,-0.0115,-0.0122,-0.0123,-0.017,-0.0182,-0.021,-0.0238,-0.0248,-0.0265,-0.0268,-0.0328,-0.0339,-0.0378,-0.0414,-0.0425,-0.0416,-0.0448,-0.0517,-0.0516,-0.0515,-0.0441,-0.0434,-0.0428,0,0,0,0,0,-0.0112,-0.011,-0.0122,-0.0129,-0.0181,-0.021,-0.0218,-0.0253,-0.0264,-0.0267,-0.0304,-0.0337,-0.0415,-0.0417,-0.043,-0.0422,-0.0517,-0.0516,-0.0515,-0.0443,-0.0435,-0.0428,0,0,0,0,0,0,-0.0076,-0.0116,-0.013,-0.0141,-0.0167,-0.0217,-0.0223,-0.0245,-0.0278,-0.028,-0.0335,-0.0348,-0.037,-0.0406,-0.0407,-0.044,-0.0469,-0.0471,-0.0411,-0.0404,-0.0397,-0.0381,-0.0452,0,0,0,0,0,-0.0068,-0.0076,-0.0117,-0.0123,-0.0134,-0.0176,-0.0192,-0.0213,-0.0249,-0.0263,-0.0303,-0.0344,-0.0377,-0.0397,-0.0433,-0.0455,-0.0482,-0.0456,-0.045,-0.0445,-0.0439,-0.0465,-0.0461,-0.051,-0.051,-0.051,0,0,-0.0056,-0.0078,-0.0083,-0.0116,-0.0141,-0.0148,-0.0186,-0.0202,-0.0207,-0.027,-0.0287,-0.0326,-0.0377,-0.0398,-0.0411,-0.0426,-0.0444,-0.0443,-0.0438,-0.0436,-0.0464,-0.0459,-0.0455,-0.0509,-0.0509,-0.0509,0,0,-0.003,-0.0054,-0.005,-0.0068,-0.0097,-0.0124,-0.0123,-0.0165,-0.0181,-0.0204,-0.0245,-0.0272,-0.0329,-0.0358,-0.0382,-0.0364,-0.0409,-0.0376,-0.0334,-0.0359,-0.0355,-0.0352,-0.0372,-0.0372,-0.0373,-0.0373,-0.0373,0,-0.001,-0.0015,-0.0052,-0.0051,-0.0059,-0.0106,-0.0098,-0.0123,-0.0168,-0.0177,-0.0196,-0.0266,-0.0308,-0.033,-0.0323,-0.0349,-0.0371,-0.0357,-0.035,-0.0348,-0.0346,-0.0368,-0.0368,-0.0369,-0.037,-0.037,-0.037,0,0.0019,0.0016,0.0018,0.0004,-0.0009,-0.0012,-0.0046,-0.0059,-0.0084,-0.0112,-0.0138,-0.0194,-0.0234,-0.0249,-0.0284,-0.029,-0.0312,-0.0338,-0.0366,-0.0336,-0.0361,-0.0363,-0.0364,-0.0365,-0.0366,-0.0367,0,0,0.0067,0.0044,0.0046,0.0051,0.0021,0.0015,0.0011,-0.0008,-0.0006,-0.0051,-0.0053,-0.0109,-0.0141,-0.0169,-0.0214,-0.0237,-0.0242,-0.0277,-0.028,-0.0291,-0.0294,-0.0301,-0.0305,-0.0268,-0.0268,-0.0268,-0.0313,0,0.0105,0.0121,0.0098,0.0118,0.0123,0.0085,0.0087,0.0064,0.0035,0.002,-0.0036,-0.0059,-0.011,-0.0125,-0.0156,-0.0224,-0.0244,-0.0227,-0.0327,-0.0329,-0.0335,-0.0306,-0.0301,-0.034,-0.0315,-0.0316,-0.0316,0,0.0147,0.0151,0.0174,0.0175,0.0175,0.0179,0.0174,0.0167,0.013,0.0109,0.0072,0.0025,-0.0018,-0.0064,-0.0156,-0.0143,-0.0207,-0.026,-0.0263,-0.0299,-0.034,-0.0369,-0.0345,-0.0319,-0.0319,-0.0319,-0.0319,0,0.0202,0.0209,0.023,0.0229,0.0218,0.0226,0.022,0.0194,0.0199,0.0163,0.0165,0.0095,0.0068,-0.0021,-0.0129,-0.0143,-0.0229,-0.0265,-0.033,-0.0332,-0.0361,-0.0365,-0.0321,-0.0321,-0.032,-0.032,-0.032,0,0.025,0.027,0.0257,0.0268,0.03,0.0275,0.0301,0.0284,0.0272,0.0289,0.0215,0.0218,0.0079,0.001,-0.0099,-0.0213,-0.0207,-0.0314,-0.0341,-0.0333,-0.0334,-0.0348,-0.035,-0.0322,-0.0322,-0.0321,-0.0321,0,0.03,0.0292,0.0318,0.0319,0.0324,0.0343,0.0355,0.0374,0.0356,0.0376,0.0372,0.031,0.0225,0.0088,-0.0055,-0.0164,-0.028,-0.0322,-0.03,-0.0323,-0.0376,-0.0374,-0.0402,-0.0402,-0.0403,-0.0403,-0.0404,0,0.0325,0.0341,0.0357,0.0376,0.0376,0.04,0.0421,0.0413,0.0438,0.0439,0.046,0.0394,0.0362,0.0152,-0.0053,-0.0239,-0.0264,-0.0359,-0.0386,-0.0359,-0.0383,-0.038,-0.0378,-0.0396,-0.0396,-0.0397,-0.0397,0,0.0371,0.0372,0.039,0.0428,0.0455,0.0487,0.0517,0.0553,0.0554,0.0578,0.0604,0.0584,0.0394,0.0205,-0.0053,-0.0185,-0.0332,-0.0369,-0.0347,-0.0371,-0.0356,-0.0379,-0.0376,-0.0399,-0.0398,-0.0398,-0.0398,-0.0398,0.0403,0.0421,0.0441,0.0479,0.0514,0.0561,0.0595,0.0621,0.0669,0.0679,0.0689,0.0636,0.0455,0.011,-0.0089,-0.0327,-0.0326,-0.0423,-0.0422,-0.042,-0.0406,-0.0393,-0.0439,-0.0439,-0.0439,-0.0439,-0.0439,0,0.0427,0.0454,0.0492,0.0531,0.056,0.0584,0.065,0.0652,0.0693,0.0708,0.0707,0.0535,0.035,0.0139,-0.0209,-0.0397,-0.0417,-0.0459,-0.0443,-0.0441,-0.0439,-0.0425,-0.0463,-0.0463,-0.0464,-0.0464,0,0,0.0442,0.0469,0.0482,0.0541,0.0585,0.061,0.0647,0.0653,0.0654,0.0645,0.062,0.0591,0.0381,0.0134,-0.0108,-0.0294,-0.0333,-0.0336,-0.0303,-0.0255,-0.0251,-0.0407,-0.0382,0,0,0,0,0]}],[{"header":{"parameterUnit":"m.s-1","parameterCategory":2,"la1":30.2991,"la2":30.254,"lo1":-89.0895,"lo2":-89.0444,"dy":0.0017,"dx":0.0017,"nx":28,"ny":28,"refTime":"2025-04-02T03:00:00:Z","depth":"4","parameterNumber":2,"parameterNumberName":"U-component_of_CURRENTS"},"data":[0,0,0,0,0,0,0,0,0,0,0,0,0,0,0,0,0,0,0,0,0,0,0,0,0,0,0,0,0,0,0,0,0,0,0,0,0,0,0,0,0,0,0,0,0,0,0,0,0,0,0,0,0,0,0,0,0,0,0.142,0.142,0,0.1464,0.1464,0.1464,0.15,0.1501,0.1501,0.1502,0.1561,0.1562,0.1563,0,0,0,0,0,0,0,0,0,0,0,0,0,0.135,0.1351,0.142,0.142,0.1421,0.1464,0.1464,0.1464,0.15,0.1501,0.1502,0.1502,0.156,0.1561,0.1563,0,0,0,0,0,0,0,0,0,0,0,0,0,0.1384,0.1351,0.1419,0.1446,0.1449,0.1464,0.1464,0.1465,0.15,0.1501,0.1502,0.1503,0.156,0.1561,0.1563,0.1555,0,0,0.1568,0.1568,0,0,0,0,0,0,0,0,0.1382,0.1386,0.1441,0.1444,0.1447,0.1479,0.1461,0.1496,0.15,0.1478,0.1502,0.1503,0.1536,0.1539,0.1542,0.1558,0.156,0.1568,0.1569,0.1569,0.157,0,0,0,0,0,0,0,0.1379,0.1384,0.1435,0.1442,0.1446,0.145,0.1455,0.1468,0.15,0.148,0.1483,0.1492,0.1537,0.154,0.1544,0.1561,0.1568,0.1569,0.157,0.157,0.1671,0.1673,0,0,0,0,0,0,0.1378,0.1382,0.1433,0.1436,0.1419,0.1451,0.1457,0.1466,0.15,0.1506,0.1491,0.1493,0.1537,0.1542,0.1546,0.1625,0.1569,0.1571,0.1572,0.167,0.1672,0.1674,0,0,0,0,0,0,0.1377,0.1383,0.1432,0.1412,0.1419,0.1451,0.1461,0.1467,0.1499,0.1508,0.1514,0.1521,0.1538,0.1544,0.1588,0.1624,0.1571,0.1573,0.1668,0.167,0.1673,0.1727,0,0,0,0,0,0,0.1375,0.1382,0.1401,0.1412,0.142,0.146,0.1461,0.1467,0.1502,0.1507,0.1536,0.154,0.1539,0.1585,0.1589,0.1625,0.1574,0.1665,0.1669,0.1672,0.1723,0.1731,0.1738,0,0,0,0,0,0.1372,0.1392,0.1402,0.1409,0.1442,0.1462,0.1466,0.149,0.1503,0.1522,0.1547,0.1541,0.1609,0.1588,0.1592,0.1629,0.1664,0.1668,0.1672,0.1719,0.1729,0.1738,0,0,0,0,0,0,0.1373,0.1398,0.1409,0.1437,0.1458,0.1469,0.1495,0.1506,0.1539,0.1555,0.1559,0.1566,0.1618,0.1617,0.1593,0.167,0.1637,0.1642,0.1672,0.1682,0.1689,0.1686,0.1575,0,0,0,0,0,0.1381,0.1406,0.1424,0.1451,0.1464,0.1484,0.1501,0.1518,0.1541,0.1558,0.1579,0.1606,0.1632,0.1652,0.1672,0.171,0.1709,0.1739,0.1747,0.1753,0.1754,0.1783,0.1793,0.1687,0.1687,0.1687,0,0,0.139,0.1408,0.1424,0.1454,0.1475,0.1499,0.1498,0.1534,0.1562,0.1559,0.1616,0.1634,0.1648,0.1695,0.1718,0.1702,0.1787,0.1758,0.1763,0.1761,0.1788,0.1799,0.1808,0.1689,0.1689,0.1689,0,0,0.1411,0.1438,0.1463,0.1483,0.1521,0.1532,0.1549,0.1579,0.1605,0.1651,0.1661,0.1702,0.1741,0.1758,0.177,0.1831,0.1825,0.1846,0.1883,0.1912,0.1921,0.1928,0.1951,0.196,0.1851,0.1851,0.1851,0,0.1423,0.1453,0.1474,0.1502,0.1525,0.155,0.1579,0.1606,0.1649,0.1674,0.1681,0.1754,0.1768,0.1818,0.1844,0.1848,0.1861,0.1845,0.1921,0.1928,0.1935,0.1956,0.1966,0.1854,0.1854,0.1853,0.1853,0,0.1451,0.1487,0.1506,0.1549,0.1576,0.1608,0.1641,0.1681,0.1715,0.1738,0.1805,0.1828,0.1868,0.1886,0.1885,0.1947,0.1941,0.1925,0.1893,0.1949,0.1968,0.1977,0.1859,0.1857,0.1857,0.1856,0,0,0.1446,0.1512,0.1522,0.1548,0.1604,0.1624,0.1682,0.1729,0.1767,0.1821,0.1869,0.1925,0.1942,0.1956,0.1968,0.1997,0.2061,0.1989,0.1989,0.2004,0.213,0.2008,0.2006,0.2062,0.2064,0.2065,0.2127,0,0.1463,0.1516,0.1548,0.1604,0.163,0.1675,0.1721,0.1772,0.1817,0.1872,0.1913,0.1965,0.1967,0.1996,0.2029,0.2052,0.2086,0.2046,0.208,0.2081,0.196,0.2012,0.207,0.2134,0.2136,0.2137,0.2138,0,0.1471,0.1507,0.1562,0.1626,0.1643,0.1685,0.1758,0.1803,0.188,0.1917,0.1978,0.2007,0.2073,0.2059,0.2134,0.2112,0.2131,0.2143,0.2145,0.2015,0.1974,0.2066,0.2153,0.2152,0.2151,0.215,0.2149,0,0.1437,0.1512,0.1556,0.158,0.1658,0.1699,0.1747,0.1823,0.1863,0.1953,0.199,0.2064,0.2109,0.2149,0.2185,0.217,0.2252,0.2228,0.2137,0.2129,0.2195,0.2186,0.2279,0.2279,0.2279,0.2279,0.2278,0,0.1421,0.146,0.155,0.1572,0.1626,0.1691,0.1753,0.1811,0.1893,0.1935,0.2015,0.2052,0.2136,0.2188,0.2208,0.2199,0.2276,0.215,0.2137,0.2218,0.2211,0.2202,0.2192,0.2281,0.228,0.228,0.228,0,0.1371,0.1432,0.1484,0.1579,0.161,0.1652,0.1748,0.1787,0.1877,0.1935,0.1968,0.2067,0.213,0.2196,0.2263,0.2214,0.2225,0.2204,0.2299,0.229,0.2078,0.2071,0.21,0.2096,0.2093,0.209,0.2088,0,0.1345,0.1371,0.1476,0.1508,0.1556,0.1626,0.1669,0.1768,0.1803,0.1923,0.1938,0.2039,0.2092,0.2086,0.217,0.2202,0.2182,0.217,0.2109,0.2075,0.2061,0.2058,0.2055,0.2083,0.2082,0.2081,0.208,0,0.1295,0.1348,0.1392,0.1457,0.1512,0.1556,0.1627,0.1637,0.1741,0.1838,0.1855,0.1887,0.1955,0.2004,0.2047,0.2066,0.2164,0.2136,0.2142,0.2085,0.2054,0.2043,0.2044,0.2069,0.2071,0.2072,0.2072,0,0.1262,0.1279,0.1346,0.1389,0.1454,0.1468,0.1511,0.1546,0.1587,0.1709,0.1715,0.1823,0.1925,0.1936,0.1977,0.1985,0.1956,0.1888,0.1906,0.1919,0.1833,0.1767,0.1687,0,0,0,0,0,0.122,0.123,0.127,0.1309,0.1368,0.1401,0.1474,0.1518,0.1612,0.1579,0.1636,0.1687,0.1732,0.1799,0.1775,0.1924,0.1981,0.1889,0.1915,0.2008,0.202,0.1937,0,0,0,0,0,0,0.1192,0.1231,0.124,0.1232,0.1243,0.1291,0.1331,0.1395,0.1377,0.1479,0.1513,0.1595,0.1672,0.1731,0.1745,0.1767,0.1751,0.1965,0.1961,0.2,0.2012,0.2022,0.1941,0,0,0,0,0]},{"header":{"parameterUnit":"m.s-1","parameterCategory":2,"la1":30.2991,"la2":30.254,"lo1":-89.0895,"lo2":-89.0444,"dy":0.0017,"dx":0.0017,"nx":28,"ny":28,"refTime":"2025-04-02T03:00:00:Z","depth":"4","parameterNumber":3,"parameterNumberName":"V-component_of_CURRENTS"},"data":[0,0,0,0,0,0,0,0,0,0,0,0,0,0,0,0,0,0,0,0,0,0,0,0,0,0,0,0,0,0,0,0,0,0,0,0,0,0,0,0,0,0,0,0,0,0,0,0,0,0,0,0,0,0,0,0,0,0,-0.0081,-0.0081,0,-0.0114,-0.0115,-0.0115,-0.0146,-0.0147,-0.0147,-0.0148,-0.0202,-0.0203,-0.0204,0,0,0,0,0,0,0,0,0,0,0,0,0,-0.0063,-0.0063,-0.0081,-0.0081,-0.0081,-0.0114,-0.0115,-0.0115,-0.0146,-0.0147,-0.0147,-0.0148,-0.0201,-0.0203,-0.0204,0,0,0,0,0,0,0,0,0,0,0,0,0,-0.0081,-0.0063,-0.008,-0.0101,-0.0103,-0.0114,-0.0115,-0.0115,-0.0146,-0.0147,-0.0148,-0.0148,-0.0201,-0.0202,-0.0204,-0.0201,0,0,-0.0209,-0.0209,0,0,0,0,0,0,0,0,-0.0079,-0.0081,-0.0098,-0.01,-0.0102,-0.0127,-0.0128,-0.0145,-0.0146,-0.013,-0.0148,-0.0148,-0.0178,-0.0182,-0.0186,-0.0204,-0.0206,-0.0209,-0.021,-0.0211,-0.0211,0,0,0,0,0,0,0,-0.0078,-0.008,-0.0094,-0.0098,-0.0101,-0.0116,-0.0119,-0.0132,-0.015,-0.0131,-0.0134,-0.0138,-0.018,-0.0184,-0.0188,-0.0207,-0.0209,-0.021,-0.0211,-0.0212,-0.0264,-0.0265,0,0,0,0,0,0,-0.0073,-0.0079,-0.0093,-0.0095,-0.0093,-0.0115,-0.0119,-0.0118,-0.015,-0.0155,-0.0137,-0.0139,-0.0181,-0.0186,-0.019,-0.0214,-0.0211,-0.0212,-0.0213,-0.0264,-0.0265,-0.0265,0,0,0,0,0,0,-0.0072,-0.0074,-0.0091,-0.0088,-0.0091,-0.0115,-0.0114,-0.0119,-0.0128,-0.0154,-0.016,-0.0143,-0.0182,-0.0187,-0.0207,-0.0216,-0.0213,-0.0214,-0.0263,-0.0264,-0.0265,-0.0246,0,0,0,0,0,0,-0.0071,-0.0073,-0.007,-0.0087,-0.0091,-0.01,-0.0114,-0.0119,-0.013,-0.0133,-0.0161,-0.0166,-0.0183,-0.0204,-0.0208,-0.0218,-0.0215,-0.0263,-0.0264,-0.0265,-0.0246,-0.0246,-0.0246,0,0,0,0,0,-0.0071,-0.0063,-0.007,-0.0071,-0.0087,-0.01,-0.0103,-0.0122,-0.0129,-0.0133,-0.0153,-0.0165,-0.0213,-0.0205,-0.021,-0.022,-0.0263,-0.0264,-0.0265,-0.0247,-0.0246,-0.0246,0,0,0,0,0,0,-0.005,-0.0066,-0.0074,-0.0071,-0.0085,-0.0105,-0.0108,-0.012,-0.0138,-0.0142,-0.0166,-0.0172,-0.0195,-0.0209,-0.02,-0.0239,-0.0242,-0.0244,-0.0227,-0.0227,-0.0227,-0.0212,-0.0217,0,0,0,0,0,-0.0044,-0.0046,-0.0064,-0.0061,-0.0068,-0.0087,-0.0095,-0.0108,-0.0126,-0.0134,-0.0155,-0.0179,-0.0202,-0.0214,-0.0235,-0.025,-0.0259,-0.0262,-0.0262,-0.0262,-0.0254,-0.0274,-0.0275,-0.0268,-0.0268,-0.0268,0,0,-0.0035,-0.0044,-0.0045,-0.0058,-0.007,-0.0079,-0.0093,-0.0104,-0.0113,-0.0137,-0.0154,-0.0178,-0.0206,-0.0228,-0.0239,-0.024,-0.027,-0.0263,-0.0263,-0.0254,-0.0275,-0.0276,-0.0276,-0.0269,-0.0269,-0.0269,0,0,-0.0024,-0.0027,-0.0029,-0.004,-0.0058,-0.007,-0.0073,-0.0095,-0.0107,-0.0124,-0.0148,-0.0173,-0.0204,-0.0227,-0.0243,-0.0253,-0.0269,-0.0266,-0.0253,-0.0273,-0.0273,-0.0274,-0.0289,-0.029,-0.0266,-0.0266,-0.0266,0,-0.0015,-0.0018,-0.0032,-0.0039,-0.0044,-0.0066,-0.0069,-0.0084,-0.011,-0.0116,-0.0129,-0.0177,-0.0203,-0.023,-0.0238,-0.0252,-0.0263,-0.0249,-0.0272,-0.0272,-0.0273,-0.0288,-0.029,-0.0265,-0.0265,-0.0265,-0.0265,0,-0.0012,-0.0013,-0.0014,-0.003,-0.0036,-0.0042,-0.0062,-0.0072,-0.0088,-0.0104,-0.0131,-0.0166,-0.0191,-0.0212,-0.0229,-0.0251,-0.0258,-0.0268,-0.0268,-0.0272,-0.0288,-0.0291,-0.0264,-0.0264,-0.0264,-0.0265,0,0,0.0004,-0.001,-0.001,-0.001,-0.003,-0.0033,-0.0045,-0.0059,-0.006,-0.0095,-0.01,-0.0151,-0.0165,-0.0183,-0.0213,-0.0235,-0.0256,-0.0252,-0.0253,-0.0259,-0.0297,-0.0288,-0.029,-0.0271,-0.0271,-0.0271,-0.0307,0,0.0009,0.0006,-0.0004,-0.0002,-0.0003,-0.0018,-0.0022,-0.0037,-0.0052,-0.0063,-0.0103,-0.012,-0.0156,-0.0165,-0.0196,-0.0238,-0.0262,-0.0245,-0.0298,-0.03,-0.0284,-0.0292,-0.0272,-0.0309,-0.0309,-0.031,-0.031,0,0.001,0.0011,0.0014,0.0019,0.0019,0.0018,0.0019,0.0012,-0.0009,-0.002,-0.0047,-0.0073,-0.0112,-0.0139,-0.0212,-0.0199,-0.0244,-0.028,-0.0283,-0.0279,-0.0295,-0.0305,-0.0315,-0.0315,-0.0314,-0.0314,-0.0314,0,0.0027,0.0026,0.0033,0.0032,0.003,0.0036,0.0037,0.0025,0.0032,0.001,0.0016,-0.0038,-0.0053,-0.0122,-0.0195,-0.0203,-0.027,-0.0291,-0.0327,-0.0327,-0.0332,-0.0331,-0.0341,-0.0341,-0.034,-0.034,-0.034,0,0.0035,0.0042,0.0044,0.0048,0.0069,0.006,0.008,0.0073,0.0073,0.009,0.0043,0.0048,-0.0048,-0.0096,-0.0177,-0.0253,-0.0257,-0.0321,-0.0335,-0.0325,-0.0323,-0.0334,-0.0333,-0.0342,-0.0341,-0.0341,-0.0341,0,0.0046,0.0045,0.0058,0.0067,0.0076,0.009,0.0115,0.0132,0.0128,0.015,0.0149,0.0115,0.0055,-0.0042,-0.0146,-0.0215,-0.03,-0.0328,-0.03,-0.0313,-0.0349,-0.0346,-0.0372,-0.0372,-0.0372,-0.0372,-0.0372,0,0.005,0.0058,0.0078,0.0096,0.0102,0.0125,0.0147,0.0155,0.0177,0.0194,0.0211,0.0172,0.0134,0.0004,-0.0111,-0.026,-0.0286,-0.0334,-0.0354,-0.0341,-0.0352,-0.035,-0.0347,-0.0371,-0.0371,-0.0371,-0.0371,0,0.0063,0.007,0.0084,0.012,0.0147,0.0179,0.0211,0.0236,0.0253,0.0256,0.0272,0.0208,0.0145,0.0027,-0.0085,-0.0197,-0.0307,-0.0334,-0.0336,-0.0355,-0.0341,-0.0351,-0.0349,-0.0371,-0.0371,-0.0371,-0.0371,0,0.0077,0.0088,0.011,0.0141,0.0179,0.0219,0.0236,0.027,0.0293,0.0314,0.0321,0.0249,0.0208,0.006,-0.0045,-0.015,-0.0188,-0.0237,-0.0244,-0.0246,-0.0205,-0.0168,-0.0153,0,0,0,0,0,0.0088,0.01,0.0131,0.0164,0.0204,0.0222,0.0274,0.0289,0.0315,0.0337,0.0331,0.0274,0.0139,0.0083,-0.0019,-0.0067,-0.0223,-0.0194,-0.0287,-0.037,-0.037,-0.0344,0,0,0,0,0,0,0.0094,0.0119,0.0129,0.0177,0.0202,0.0246,0.0277,0.0298,0.0311,0.0328,0.0264,0.0235,0.0106,0.0198,-0.0025,-0.0057,-0.0133,-0.0256,-0.0259,-0.037,-0.037,-0.037,-0.0344,0,0,0,0,0]}]]